Flag for Germany Weather past 2 weeks in Ingolstadt, Bavaria, Germany

Now
64 °F

Partly sunny.


Feels Like: 64 °F
Forecast: 47 / 61 °F
Wind: 5 mph from Southwest

Location: Ingolstadt Airport

Current Time: Oct 20, 2014 at 12:28:02 PM

Latest Report: Oct 20, 2014 at 11:20 AM


Visibility: N/A

Pressure: 30.12 "Hg

Humidity: 78%

Dew point: 57 °F

Location of IngolstadtLocation

Historic Weather in Ingolstadt — Graph

°F

Ingolstadt temperature yesterday

Maximum temperature yesterday: 66 °F (at 5:20 PM)
Minimum temperature yesterday: 46 °F (at 3:20 AM)
Average temperature yesterday: 53 °F

Past Weeks' High & Low Weather Summary

 TemperatureHumidityPressure
High77 °F (Oct 9, 3:20 PM)100% (Oct 6, 4:20 AM)30.27 "Hg (Oct 6, 4:20 AM)
Low43 °F (Oct 7, 1:20 AM)39% (Oct 9, 3:20 PM)29.77 "Hg (Oct 15, 4:20 PM)
Average56 °F90%29.95 "Hg
* Reported Oct 5 11:20 AM — Oct 20 11:20 AM, Ingolstadt, Weather by CustomWeather, © 2014

Note: Actual official high and low records may vary slightly from our data, if they occured in-between our weather recording intervals... More about our weather records

Advertising

Ingolstadt weather history for previous 24 hours

 ConditionsComfort  
Time TempWeatherWind HumidityBarometerVisibility
11:20 AM
Oct 20
64 °FPartly sunny.5 mph78%30.12 "HgN/A
10:20 AM61 °FBroken clouds.7 mph83%30.12 "HgN/A
9:20 AM54 °FPartly sunny.3 mph100%30.12 "HgN/A
8:20 AM52 °FFog.1 mph94%30.12 "HgN/A
7:20 AM52 °FFog.3 mph94%30.12 "HgN/A
5:20 AM50 °FPassing clouds.3 mph100%30.12 "HgN/A
4:20 AM54 °FCool.2 mph88%30.12 "Hg4 mi
3:20 AM54 °FCool.6 mph94%30.15 "Hg4 mi
2:20 AM54 °FCool.5 mph94%30.15 "Hg4 mi
1:20 AM52 °FCool.3 mph94%30.12 "Hg3 mi
12:20 AM52 °FCool.3 mph100%30.12 "Hg4 mi
11:20 PM
Oct 19
52 °FCool.1 mph100%30.12 "Hg0 mi
10:20 PM52 °FCool.3 mph100%30.15 "Hg1 mi
9:20 PM55 °FCool.2 mph94%30.15 "Hg0 mi
8:20 PM55 °FCool.3 mph100%30.15 "Hg0 mi
7:20 PM57 °FFog.2 mph94%30.15 "Hg1 mi
6:20 PM59 °FFog.1 mph100%30.12 "HgN/A
5:20 PM66 °FPassing clouds.2 mph78%30.12 "HgN/A
4:20 PM64 °FMild.6 mph83%30.12 "Hg5 mi
3:20 PM64 °FMild.3 mph78%30.15 "HgN/A
2:20 PM64 °FMild.2 mph73%30.18 "Hg6 mi
1:20 PM59 °FCool.3 mph82%30.21 "Hg5 mi
12:20 PM55 °FCool.3 mph94%30.21 "Hg4 mi
Weather by CustomWeather, © 2014

See weather overviewHow to use our weather pages